Skip Page Navigation
NASA JPL Caltech
NASA Logo - Jet Propulsion Laboratory + View the NASA Portal
+ Center for Near-Earth Object Studies
JPL Home Earth Solar System Stars & Galaxies Technology
JPL Solar System Dynamics
BODIES ORBITS EPHEMERIDES TOOLS PHYSICAL DATA DISCOVERY FAQ SITE MAP
IMPORTANT: The SSD Announcement email list is now available. Major changes are coming in the near future, including possible hostname and/or URL changes. To be notified of such changes, subscribe to this email list.

Please visit this page for more details.


JPL Small-Body Database Browser
Search: [ help ]  
35148 (1993 FX15)
Classification: Main-belt Asteroid          SPK-ID: 2035148
Ephemeris | Orbit Diagram | Orbital Elements | Mission Design | Physical Parameters | Discovery Circumstances | Close-Approach Data ]

[ hide orbit diagram ]

For accurate long-term ephemerides, please instead use our Horizons system.This orbit viewer was implemented using two-body methods, and hence should not be used for determining accurate long-term trajectories (over several years or decades) or planetary encounter circumstances.


[ revert to old Java-based viewer ]

Orbital Elements at Epoch 2458600.5 (2019-Apr-27.0) TDB
Reference: JPL 25 (heliocentric ecliptic J2000)
 Element Value Uncertainty (1-sigma)   Units 
e .1279670716431711 3.5238e-08  
a 3.149253901733534 2.4282e-08 au
q 2.746253102067862 1.1933e-07 au
i 7.08912252090349 5.3923e-06 deg
node 49.12615481554234 4.3281e-05 deg
peri 36.90703658798947 5.1339e-05 deg
M 327.5196067661997 2.7645e-05 deg
tp 2458784.674168908293
(2019-Oct-28.17416891)
0.00015751 TDB
period 2041.3145964621
5.59
2.3609e-05
6.464e-08
d
yr
n .1763569420528973 2.0397e-09 deg/d
Q 3.552254701399205 2.7389e-08 au
  Orbit Determination Parameters
   # obs. used (total)      1241  
   data-arc span      9455 days (25.89 yr)  
   first obs. used      1993-03-17  
   last obs. used      2019-02-04  
   planetary ephem.      DE431  
   SB-pert. ephem.      SB431-N16  
   condition code      0  
   norm. resid. RMS      .51261  
   source      ORB  
   producer      Otto Matic  
   solution date      2019-Jul-13 01:45:37  

Additional Information
 Earth MOID = 1.7663 au 
 Jupiter MOID = 1.71356 au 
 T_jup = 3.184 
[ show covariance matrix ]

Ephemeris | Orbit Diagram | Orbital Elements | Mission Design | Physical Parameters | Discovery Circumstances | Close-Approach Data ]

Physical Parameter Table
Parameter Symbol Value Units Sigma Reference Notes
absolute magnitude H 13.9   n/a MPO337547  
diameter diameter 9.310 km 0.183 urn:nasa:pds:neowise_diameters_albedos::2.0[mainbelt] (http://adsabs.harvard.edu/abs/2011ApJ...741...68M)  
geometric albedo albedo 0.067   0.011 urn:nasa:pds:neowise_diameters_albedos::2.0[mainbelt] (http://adsabs.harvard.edu/abs/2011ApJ...741...68M)  

35148 (1993 FX15)          Discovered 1993-Mar-17 by UESAC at La Silla
Reference: 20020227/Numbers.arcLast Updated: 2004-04-19

[ show close-approach data ]
Alternate Designations
 1993 FX15 = 1999 JO106 
Ephemeris | Orbit Diagram | Orbital Elements | Mission Design | Physical Parameters | Discovery Circumstances | Close-Approach Data ]
ABOUT SSD CREDITS/AWARDS PRIVACY/COPYRIGHT GLOSSARY LINKS
FirstGov
(server date/time)  
NASA Home Page
Site Manager:   Ryan S. Park
Webmaster  Alan B. Chamberlin